Weather History for Kokomo, IN

Change the Weather History Date:

Friday, January 4, 2013

  Actual Average (KGUS) Record (KGUS)
Temperature  
Mean Temperature 20 °F -  
Max Temperature 26 °F 31 °F 62 °F (1997)
Min Temperature 14 °F 20 °F 5 °F (2003)
Degree Days  
Heating Degree Days 45    
Moisture  
Dew Point 16 °F    
Average Humidity 80    
Maximum Humidity 93    
Minimum Humidity 69    
Precipitation  
Precipitation 0.00 in - - ()
Sea Level Pressure  
Sea Level Pressure 30.26 in    
Wind  
Wind Speed 13 mph (WSW)    
Max Wind Speed 24 mph    
Max Gust Speed 30 mph    
Visibility 10 miles    
Events      
Averages and records for this station are not official NWS values.
T = Trace of Precipitation, MM = Missing Value Source: NWS Daily Summary

Daily Weather History Graph

Daily Weather History Graph

Search for Another Location

Airport:

Trip Planner

Search our weather history database for the weather conditions in past years. The results will help you decide how hot, cold, wet, or windy it might be!

Date:

Astronomy

Jan. 04, 2013 Rise Set
Actual Time 7:07 AM CST 4:31 PM CST
Civil Twilight 6:37 AM CST 5:01 PM CST
Nautical Twilight 6:03 AM CST 5:35 PM CST
Astronomical Twilight 5:30 AM CST 6:08 PM CST
Moon No Moon Rise 10:48 AM CST (1/4)
Length of Visible Light 10h 24m
Length of Day
9h 23m
Waning Gibbous, 55% of the Moon is Illuminated
Jan 4
Waning Gibbous
Jan 4
Last Quarter
Jan 11
New
Jan 18
First Quarter
Jan 26
Full

Hourly Weather History & Observations

Time (CST) Temp. Windchill Dew Point Humidity Pressure Visibility Wind Dir Wind Speed Gust Speed Precip Events Conditions
12:15 AM 19.4 °F 7.9 °F 14.0 °F 80% 30.26 in 10.0 mi West 10.4 mph - N/A   Clear
12:35 AM 19.4 °F 7.2 °F 15.8 °F 86% 30.26 in 10.0 mi WSW 11.5 mph - N/A   Clear
12:55 AM 19.4 °F 7.2 °F 14.0 °F 80% 30.26 in 10.0 mi West 11.5 mph - N/A   Clear
1:15 AM 17.6 °F 4.3 °F 15.8 °F 93% 30.26 in 10.0 mi West 12.7 mph - N/A   Clear
1:35 AM 17.6 °F 5.7 °F 12.2 °F 79% 30.27 in 10.0 mi West 10.4 mph - N/A   Clear
1:55 AM 17.6 °F 6.4 °F 12.2 °F 79% 30.27 in 10.0 mi West 9.2 mph - N/A   Clear
2:35 AM 17.6 °F 5.7 °F 12.2 °F 79% 30.27 in 10.0 mi West 10.4 mph - N/A   Clear
3:15 AM 15.8 °F 2.7 °F 12.2 °F 86% 30.27 in 10.0 mi West 11.5 mph - N/A   Clear
3:35 AM 15.8 °F 3.4 °F 12.2 °F 86% 30.26 in 10.0 mi West 10.4 mph - N/A   Clear
3:55 AM 15.8 °F 3.4 °F 12.2 °F 86% 30.26 in 10.0 mi West 10.4 mph - N/A   Clear
4:15 AM 15.8 °F 2.7 °F 12.2 °F 86% 30.26 in 10.0 mi WSW 11.5 mph - N/A   Clear
4:55 AM 15.8 °F 2.1 °F 12.2 °F 86% 30.26 in 10.0 mi WSW 12.7 mph - N/A   Clear
5:15 AM 15.8 °F 2.1 °F 12.2 °F 86% 30.26 in 10.0 mi WSW 12.7 mph - N/A   Clear
5:35 AM 15.8 °F 1.4 °F 12.2 °F 86% 30.26 in 10.0 mi West 13.8 mph - N/A   Clear
5:55 AM 15.8 °F 2.7 °F 12.2 °F 86% 30.26 in 10.0 mi West 11.5 mph - N/A   Clear
6:15 AM 15.8 °F 2.7 °F 10.4 °F 79% 30.26 in 10.0 mi West 11.5 mph - N/A   Clear
6:35 AM 14.0 °F 0.5 °F 10.4 °F 86% 30.26 in 10.0 mi West 11.5 mph - N/A   Clear
7:15 AM 14.0 °F 1.2 °F 10.4 °F 86% 30.27 in 9.0 mi West 10.4 mph - N/A   Clear
7:35 AM 14.0 °F 0.5 °F 10.4 °F 86% 30.28 in 9.0 mi West 11.5 mph - N/A   Clear
7:55 AM 15.8 °F 3.4 °F 12.2 °F 86% 30.28 in 10.0 mi West 10.4 mph - N/A   Clear
8:15 AM 15.8 °F 2.1 °F 10.4 °F 79% 30.28 in 10.0 mi West 12.7 mph - N/A   Clear
8:35 AM 15.8 °F 2.7 °F 10.4 °F 79% 30.28 in 10.0 mi West 11.5 mph - N/A   Clear
8:55 AM 17.6 °F 3.7 °F 12.2 °F 79% 30.28 in 10.0 mi WSW 13.8 mph - N/A   Clear
9:15 AM 19.4 °F 3.6 °F 12.2 °F 74% 30.28 in 10.0 mi WSW 19.6 mph - N/A   Clear
9:35 AM 19.4 °F 6.0 °F 12.2 °F 74% 30.28 in 10.0 mi WSW 13.8 mph 20.7 mph N/A   Clear
9:55 AM 19.4 °F 6.0 °F 12.2 °F 74% 30.29 in 10.0 mi West 13.8 mph - N/A   Clear
10:15 AM 19.4 °F 5.5 °F 12.2 °F 74% 30.29 in 10.0 mi West 15.0 mph - N/A   Clear
10:35 AM 19.4 °F 4.5 °F 12.2 °F 74% 30.30 in 10.0 mi West 17.3 mph 24.2 mph N/A   Clear
10:55 AM 21.2 °F 7.3 °F 14.0 °F 74% 30.29 in 10.0 mi West 16.1 mph 21.9 mph N/A   Clear
11:15 AM 21.2 °F 7.8 °F 15.8 °F 80% 30.28 in 10.0 mi West 15.0 mph - N/A   Clear
11:35 AM 23.0 °F 8.7 °F 15.8 °F 74% 30.27 in 10.0 mi WSW 18.4 mph - N/A   Clear
11:55 AM 24.8 °F 11.5 °F 15.8 °F 69% 30.27 in 10.0 mi West 17.3 mph - N/A   Clear
12:15 PM 24.8 °F 12.4 °F 17.6 °F 74% 30.26 in 10.0 mi SW 15.0 mph - N/A   Clear
12:35 PM 24.8 °F 10.7 °F 17.6 °F 74% 30.25 in 10.0 mi WSW 19.6 mph - N/A   Clear
12:55 PM 24.8 °F 10.7 °F 17.6 °F 74% 30.25 in 10.0 mi WSW 19.6 mph - N/A   Clear
1:15 PM 24.8 °F 10.7 °F 17.6 °F 74% 30.24 in 10.0 mi WSW 19.6 mph - N/A   Clear
1:35 PM 26.6 °F 13.4 °F 17.6 °F 69% 30.24 in 10.0 mi WSW 18.4 mph - N/A   Clear
1:55 PM 26.6 °F 12.7 °F 19.4 °F 74% 30.24 in 10.0 mi WSW 20.7 mph - N/A   Clear
2:15 PM 26.6 °F 11.7 °F 19.4 °F 74% 30.24 in 10.0 mi WSW 24.2 mph - N/A   Clear
2:35 PM 26.6 °F 11.7 °F 19.4 °F 74% 30.24 in 10.0 mi WSW 24.2 mph - N/A   Clear
2:55 PM 26.6 °F 12.4 °F 19.4 °F 74% 30.24 in 10.0 mi WSW 21.9 mph - N/A   Clear
3:15 PM 26.6 °F 11.7 °F 21.2 °F 80% 30.24 in 10.0 mi WSW 24.2 mph 28.8 mph N/A   Clear
3:35 PM 26.6 °F 12.7 °F 19.4 °F 74% 30.24 in 10.0 mi WSW 20.7 mph 26.5 mph N/A   Clear
3:55 PM 26.6 °F 13.1 °F 19.4 °F 74% 30.24 in 10.0 mi WSW 19.6 mph 29.9 mph N/A   Clear
4:15 PM 26.6 °F 13.1 °F 21.2 °F 80% 30.24 in 10.0 mi WSW 19.6 mph - N/A   Clear
4:35 PM 26.6 °F 13.1 °F 21.2 °F 80% 30.24 in 10.0 mi WSW 19.6 mph 24.2 mph N/A   Clear
4:55 PM 26.6 °F 13.4 °F 19.4 °F 74% 30.24 in 10.0 mi WSW 18.4 mph 24.2 mph N/A   Clear
5:15 PM 26.6 °F 13.1 °F 19.4 °F 74% 30.24 in 10.0 mi WSW 19.6 mph - N/A   Clear
5:35 PM 26.6 °F 13.1 °F 19.4 °F 74% 30.25 in 10.0 mi WSW 19.6 mph - N/A   Clear
5:55 PM 26.6 °F 14.3 °F 19.4 °F 74% 30.25 in 10.0 mi WSW 16.1 mph - N/A   Clear
6:15 PM 26.6 °F 14.3 °F 19.4 °F 74% 30.25 in 10.0 mi WSW 16.1 mph - N/A   Clear
6:35 PM 26.6 °F 14.3 °F 19.4 °F 74% 30.26 in 10.0 mi WSW 16.1 mph - N/A   Clear
6:55 PM 24.8 °F 12.9 °F 19.4 °F 80% 30.26 in 10.0 mi WSW 13.8 mph - N/A   Clear
7:15 PM 24.8 °F 12.9 °F 19.4 °F 80% 30.27 in 10.0 mi WSW 13.8 mph - N/A   Clear
7:35 PM 24.8 °F 14.0 °F 19.4 °F 80% 30.27 in 10.0 mi WSW 11.5 mph - N/A   Clear
7:55 PM 24.8 °F 13.4 °F 17.6 °F 74% 30.27 in 10.0 mi WSW 12.7 mph - N/A   Clear
8:15 PM 23.0 °F 11.7 °F 17.6 °F 80% 30.27 in 10.0 mi WSW 11.5 mph - N/A   Clear
8:35 PM 23.0 °F 11.1 °F 17.6 °F 80% 30.27 in 10.0 mi WSW 12.7 mph - N/A   Clear
8:55 PM 23.0 °F 11.7 °F 17.6 °F 80% 30.27 in 10.0 mi WSW 11.5 mph - N/A   Clear
9:15 PM 23.0 °F 11.7 °F 17.6 °F 80% 30.27 in 10.0 mi WSW 11.5 mph - N/A   Clear
9:35 PM 23.0 °F 11.1 °F 19.4 °F 86% 30.27 in 10.0 mi WSW 12.7 mph - N/A   Clear
9:55 PM 23.0 °F 11.1 °F 19.4 °F 86% 30.27 in 10.0 mi WSW 12.7 mph - N/A   Clear
10:15 PM 21.2 °F 10.1 °F 19.4 °F 93% 30.28 in 10.0 mi WSW 10.4 mph - N/A   Clear
10:35 PM 21.2 °F 10.9 °F 17.6 °F 86% 30.28 in 10.0 mi WSW 9.2 mph - N/A   Clear
10:55 PM 21.2 °F 10.1 °F 17.6 °F 86% 30.28 in 10.0 mi SW 10.4 mph - N/A   Clear
11:15 PM 21.2 °F 10.9 °F 17.6 °F 86% 30.28 in 10.0 mi SW 9.2 mph - N/A   Clear
11:35 PM 21.2 °F 12.6 °F 15.8 °F 80% 30.28 in 10.0 mi SW 6.9 mph - N/A   Clear
11:55 PM 21.2 °F 11.7 °F 17.6 °F 86% 30.28 in 10.0 mi SW 8.1 mph - N/A   Clear